Home   Weather   Grise Fiord   Past weeks

Flag for Canada Past Weather in Grise Fiord, Nunavut, Canada — Yesterday and Last 2 Weeks

Now
30 °F

Chilly.


Feels Like: 15 °F
Forecast: 8 / 23 °F
Wind: 28 mph from North

Location: Kitsissut (Carey Oeer)

Current Time: Oct 1, 2016 at 1:00:12 AM

Latest Report: Oct 1, 2016 at 12:00 AM


Visibility: N/A

Pressure: 29.81 "Hg

Humidity: 79%

Dew Point: 24 °F

Location of Grise FiordLocation

Past Weather in Grise Fiord — Graph

°F

Grise Fiord Temperature Yesterday

Maximum temperature yesterday: 33 °F (at 3:00 PM)
Minimum temperature yesterday: 28 °F (at 7:00 AM)
Average temperature yesterday: 31 °F

High & Low Weather Summary for the Past Weeks

 TemperatureHumidityPressure
High34 °F (Sep 25, 8:00 AM)100% (Sep 21, 9:00 PM)30.05 "Hg (Sep 21, 9:00 PM)
Low26 °F (Sep 24, 12:00 PM)62% (Sep 17, 11:00 AM)29.44 "Hg (Sep 15, 11:00 PM)
Average31 °F87%29.82 "Hg
* Reported Sep 15 11:00 PM — Sep 30 11:00 PM, Grise Fiord, Weather by CustomWeather, © 2016

Note: Actual official high and low records may vary slightly from our data, if they occured in-between our weather recording intervals... More about our weather records

Advertising

Grise Fiord Weather History for the Previous 24 Hours

Scroll right to see more
 ConditionsComfort  
Time TempWeatherWind HumidityBarometerVisibility
11:00 PM
Fri, Sep 30
30 °FChilly.26 mph79%29.83 "HgN/A
8:00 PM31 °FChilly.23 mph80%29.84 "HgN/A
7:00 PM31 °FChilly.26 mph81%29.84 "HgN/A
6:00 PM32 °FChilly.23 mph79%29.85 "HgN/A
5:00 PM32 °FChilly.22 mph80%29.85 "HgN/A
4:00 PM32 °FChilly.23 mph79%29.84 "HgN/A
3:00 PM33 °FChilly.18 mph73%29.84 "HgN/A
2:00 PM32 °FChilly.17 mph82%29.85 "HgN/A
1:00 PM32 °FChilly.18 mph84%29.86 "HgN/A
12:00 PM31 °FChilly.12 mph84%29.87 "HgN/A
11:00 AM31 °FChilly.15 mph88%29.88 "HgN/A
10:00 AM30 °FChilly.15 mph87%29.89 "HgN/A
9:00 AM29 °FChilly.9 mph87%29.90 "HgN/A
8:00 AM28 °FChilly.14 mph90%29.90 "HgN/A
7:00 AM28 °FChilly.17 mph88%29.91 "HgN/A
6:00 AM30 °FChilly.15 mph89%29.92 "HgN/A
5:00 AM30 °FChilly.12 mph89%29.93 "HgN/A
4:00 AM30 °FChilly.12 mph89%29.93 "HgN/A
3:00 AM30 °FChilly.9 mph87%29.93 "HgN/A
2:00 AM31 °FChilly.1 mph82%29.93 "HgN/A
1:00 AM31 °FChilly.2 mph80%29.93 "HgN/A
Weather by CustomWeather, © 2016

See weather overviewHow to use our weather pages